星链-3732 (STARLINK-3732 )

导读 | 星芒AI

STARLINK-3732 是 SpaceX Starlink 项目中的一颗低轨通信卫星,属于第 13 批组网卫星(Batch 13)。该卫星于 2022 年 10 月 19 日由猎鹰 9 号火箭从卡纳维拉尔角发射升空,部署在约 540 公里的轨道高度。Starlink 卫星旨在提供全球高速互联网服务,特别服务于偏远地区。STARLINK-3732 采用先进推进系统和激光通信技术,支持高速、低延迟的网络连接,并具备自主避障能力,以确保运行安全与稳定性。

基本信息
目录编号:
52126
目录名称:
STARLINK-3732
国际标识:
2022-029AQ
轨道中心:
EARTH
卫星名称:
星链-3732
卫星全名:
星链-3732 (STARLINK-3732 )
卫星状态:
在轨 (已飞行1373 天)
发射日期:
2022-03-19 UTC
国别 :
美国 (US)
星等 :
--
轨道信息
数据来源 国际轨道数据
星历时间: 2025-12-20T22:33:27+0800
9小时前
查看轨道信息
半长轴: 6917.879km
偏心率: 0.0001413
轨道倾角: 53.219°
近地点辐角 93.914°
升交点赤经 64.139°
平近点角 266.201°
近地点: 538.764km
远地点: 540.72km
周期: 95.438分钟
每日圈数: 15.088406
详细信息
固有亮度:
5
最大亮度:
2.5
卫星平台:
Starlink v1.5
覆盖范围:
全球
运营商:
太空探索技术公司
运营商所在国:
美国
制造商(研发单位):
太空探索技术公司
制造商所在国:
美国
使用方式:
暂无
卫星简介
星链(Starlink)计划是由太空探索技术公司(SpaceX)提出的一个巨型低轨卫星互联网星座项目,计划在2019年至2024年间在太空搭建由约1.2万颗卫星组成的“星链”网络,其中1584颗将部署在地球上空550千米处的近地轨道,并从2020年开始工作。该卫星仍在工作。
2D轨道图
3D轨道图
轨道高度分析图
轨道倾角分析图
轨道综合分析图
查看轨道综合分析图